{"data":{"norad_id":41183,"intl_designator":"2015-081E","name":"ORBCOMM FM118","alt_names":[],"object_type":"PAYLOAD","status":"ACTIVE","operator":null,"country":"ORB","launch_date":"2015-12-22","launch_site_code":"AFETR","launch_vehicle":null,"mission":null,"orbit_class":"UNKNOWN","rcs_meters":0.505,"size_class":null,"mass_kg":null,"dimensions":null,"purposes":["comms"],"wikipedia_slug":null,"has_3d_model":false,"image_url":null,"decayed_at":null,"tle_current":{"epoch":"2026-05-25T04:41:00.643776Z","epoch_age_seconds":65444,"freshness":"FRESH","line1":"1 41183U 15081E   26145.19514634  .00000624  00000+0  16828-3 0  9992","line2":"2 41183  47.0033 110.4783 0004032 289.7893  70.2558 14.58856955554372","mean_motion":14.58856955,"eccentricity":0.0004032,"inclination_deg":47.0033,"raan_deg":110.4783,"arg_perigee_deg":289.7893,"mean_anomaly_deg":70.2558,"bstar":0.00016828,"rev_number":55437,"period_min":98.70741576579,"perigee_km":694.01454500351,"apogee_km":699.71982837966,"semimajor_km":7075.0041866916,"source":"CELESTRAK","updated_at":"2026-05-25T13:38:22.865720Z"}}}